timestamp,wind_dir_avg,wind_spd_avg,wind_spd_max_dir,wind_spd_gust,battery_voltage,lat,long
2021-01-19 00:04:01+00:00,217.0,9.34,215.0,10.52,12.57,47.59359,-54.27349
2021-01-19 00:14:01+00:00,216.0,10.89,215.0,12.39,12.57,47.59359,-54.27349
2021-01-19 00:24:01+00:00,216.0,10.0,212.0,10.97,12.57,47.59359,-54.27349
2021-01-19 00:34:01+00:00,213.0,9.73,213.0,10.67,12.57,47.59359,-54.27349
2021-01-19 00:44:01+00:00,217.0,8.21,216.0,9.08,12.57,47.59359,-54.27349
2021-01-19 00:54:01+00:00,213.0,9.39,210.0,10.08,12.57,47.59359,-54.27349
2021-01-19 01:04:01+00:00,214.0,10.0,212.0,12.5,12.57,47.59359,-54.27349
2021-01-19 01:14:01+00:00,212.0,9.59,210.0,10.74,12.57,47.59359,-54.27349
2021-01-19 01:24:01+00:00,217.0,10.53,218.0,11.78,12.57,47.59359,-54.27349
2021-01-19 01:34:01+00:00,217.0,9.68,214.0,11.48,12.57,47.59359,-54.27349
2021-01-19 01:44:01+00:00,218.0,8.34,220.0,9.17,12.57,47.59359,-54.27349
2021-01-19 01:54:01+00:00,220.0,8.19,222.0,9.26,12.57,47.59359,-54.27349
2021-01-19 02:04:01+00:00,209.0,9.73,211.0,10.96,12.57,47.59359,-54.27349
2021-01-19 02:14:01+00:00,213.0,9.38,214.0,11.01,12.49,47.59359,-54.27349
2021-01-19 02:24:01+00:00,212.0,8.89,212.0,9.67,12.49,47.59359,-54.27349
2021-01-19 02:34:01+00:00,212.0,8.99,216.0,9.92,12.49,47.59359,-54.27349
2021-01-19 02:44:01+00:00,209.0,7.96,207.0,9.26,12.49,47.59359,-54.27349
2021-01-19 02:54:01+00:00,217.0,8.0,220.0,9.72,12.49,47.59359,-54.27349
2021-01-19 03:04:01+00:00,218.0,6.78,220.0,7.85,12.49,47.59359,-54.27349
2021-01-19 03:14:01+00:00,217.0,6.55,219.0,7.66,12.49,47.59359,-54.27349
2021-01-19 03:24:01+00:00,217.0,6.99,217.0,8.44,12.49,47.59359,-54.27349
2021-01-19 03:34:01+00:00,214.0,8.21,213.0,9.34,12.49,47.59359,-54.27349
2021-01-19 03:44:01+00:00,210.0,8.01,215.0,9.18,12.49,47.59359,-54.27349
2021-01-19 03:54:01+00:00,208.0,7.44,208.0,8.31,12.49,47.59359,-54.27349
2021-01-19 04:04:01+00:00,206.0,7.23,205.0,8.04,12.49,47.59359,-54.27349
2021-01-19 04:14:01+00:00,197.0,7.2,199.0,7.88,12.49,47.59359,-54.27349
2021-01-19 04:24:01+00:00,198.0,6.91,200.0,7.93,12.49,47.59359,-54.27349
2021-01-19 04:34:01+00:00,209.0,6.74,214.0,7.44,12.49,47.59359,-54.27349
2021-01-19 04:44:01+00:00,209.0,5.37,214.0,6.38,12.49,47.59359,-54.27349
2021-01-19 04:54:01+00:00,190.0,6.83,193.0,7.92,12.49,47.59359,-54.27349
2021-01-19 05:04:01+00:00,184.0,6.18,183.0,7.73,12.49,47.59359,-54.27349
2021-01-19 05:14:01+00:00,180.0,6.82,181.0,7.39,12.49,47.59359,-54.27349
2021-01-19 05:24:01+00:00,180.0,6.31,182.0,8.64,12.49,47.59359,-54.27349
2021-01-19 05:34:01+00:00,177.0,5.46,178.0,6.12,12.49,47.59359,-54.27349
2021-01-19 05:44:01+00:00,179.0,5.53,178.0,6.0,12.49,47.59359,-54.27349
2021-01-19 05:54:01+00:00,188.0,5.36,190.0,5.7,12.49,47.59359,-54.27349
2021-01-19 06:04:01+00:00,189.0,4.98,186.0,7.26,12.49,47.59359,-54.27349
2021-01-19 06:14:01+00:00,190.0,5.64,195.0,6.29,12.49,47.59359,-54.27349
2021-01-19 06:24:01+00:00,188.0,5.54,188.0,6.07,12.49,47.59359,-54.27349
2021-01-19 06:34:01+00:00,187.0,5.55,189.0,6.03,12.49,47.59359,-54.27349
2021-01-19 06:44:01+00:00,185.0,4.61,188.0,4.95,12.49,47.59359,-54.27349
2021-01-19 06:54:01+00:00,164.0,3.09,164.0,3.38,12.49,47.59359,-54.27349
2021-01-19 07:04:01+00:00,167.0,3.69,167.0,3.97,12.49,47.59359,-54.27349
2021-01-19 07:14:01+00:00,174.0,3.75,175.0,4.1,12.49,47.59359,-54.27349
2021-01-19 07:24:01+00:00,183.0,3.62,184.0,3.88,12.49,47.59359,-54.27349
2021-01-19 07:34:01+00:00,213.0,3.72,214.0,4.19,12.49,47.59359,-54.27349
2021-01-19 07:44:01+00:00,208.0,4.23,204.0,4.76,12.49,47.59359,-54.27349
2021-01-19 07:54:01+00:00,204.0,3.83,203.0,4.26,12.49,47.59359,-54.27349
2021-01-19 08:04:01+00:00,215.0,3.12,216.0,3.55,12.49,47.59359,-54.27349
2021-01-19 08:14:01+00:00,226.0,3.12,222.0,3.75,12.41,47.59359,-54.27349
2021-01-19 08:24:01+00:00,221.0,3.74,210.0,4.8,12.41,47.59359,-54.27349
2021-01-19 08:34:01+00:00,226.0,2.44,232.0,2.82,12.41,47.59359,-54.27349
2021-01-19 08:44:01+00:00,226.0,2.13,228.0,2.73,12.41,47.59359,-54.27349
2021-01-19 08:54:01+00:00,214.0,2.24,220.0,2.63,12.41,47.59359,-54.27349
2021-01-19 09:04:01+00:00,229.0,2.53,227.0,2.77,12.41,47.59359,-54.27349
2021-01-19 09:14:01+00:00,217.0,2.94,217.0,3.36,12.41,47.59359,-54.27349
2021-01-19 09:24:01+00:00,221.0,2.85,218.0,3.33,12.41,47.59359,-54.27349
2021-01-19 09:34:01+00:00,224.0,2.22,227.0,2.62,12.41,47.59359,-54.27349
2021-01-19 09:44:01+00:00,249.0,2.25,251.0,2.41,12.41,47.59359,-54.27349
2021-01-19 09:54:01+00:00,263.0,2.19,263.0,2.6,12.41,47.59359,-54.27349
2021-01-19 10:04:01+00:00,254.0,2.73,258.0,3.41,12.41,47.59359,-54.27349
2021-01-19 10:14:01+00:00,271.0,1.95,271.0,2.43,12.41,47.59359,-54.27349
2021-01-19 10:24:01+00:00,284.0,1.9,282.0,1.97,12.41,47.59359,-54.27349
2021-01-19 10:34:01+00:00,271.0,1.18,272.0,1.27,12.41,47.59359,-54.27349
2021-01-19 10:44:01+00:00,340.0,1.65,338.0,1.74,12.41,47.59359,-54.27349
2021-01-19 10:54:01+00:00,307.0,1.64,306.0,1.78,12.41,47.59359,-54.27349
2021-01-19 11:04:01+00:00,276.0,2.68,284.0,3.04,12.41,47.59359,-54.27349
2021-01-19 11:14:01+00:00,289.0,3.27,289.0,3.72,12.41,47.59359,-54.27349
2021-01-19 11:24:01+00:00,259.0,3.57,263.0,3.92,12.41,47.59359,-54.27349
2021-01-19 11:34:01+00:00,284.0,3.12,285.0,3.6,12.41,47.59359,-54.27349
2021-01-19 11:44:01+00:00,276.0,2.89,275.0,3.24,12.41,47.59359,-54.27349
2021-01-19 11:54:01+00:00,265.0,2.25,268.0,2.59,12.41,47.59359,-54.27349
2021-01-19 12:04:01+00:00,237.0,1.95,220.0,2.35,12.41,47.59359,-54.27349
2021-01-19 12:14:01+00:00,255.0,2.1,252.0,2.31,12.41,47.59359,-54.27349
2021-01-19 12:24:01+00:00,300.0,1.51,299.0,1.9,12.41,47.59359,-54.27349
2021-01-19 12:34:01+00:00,305.0,1.9,301.0,2.18,12.41,47.59359,-54.27349
2021-01-19 12:44:01+00:00,270.0,2.06,267.0,2.34,12.41,47.59359,-54.27349
2021-01-19 12:54:01+00:00,272.0,2.11,272.0,2.33,12.41,47.59359,-54.27349
2021-01-19 13:04:01+00:00,298.0,2.02,303.0,2.24,12.41,47.59359,-54.27349
2021-01-19 14:14:01+00:00,195.0,3.03,196.0,3.29,14.32,47.59359,-54.27349
2021-01-19 14:24:01+00:00,192.0,3.23,196.0,3.69,14.32,47.59359,-54.27349
2021-01-19 14:34:01+00:00,205.0,4.27,209.0,4.47,14.32,47.59359,-54.27349
2021-01-19 14:44:01+00:00,207.0,4.87,204.0,5.56,14.32,47.59359,-54.27349
2021-01-19 14:54:01+00:00,208.0,4.39,211.0,4.84,14.32,47.59359,-54.27349
2021-01-19 15:04:01+00:00,204.0,3.44,204.0,4.21,14.32,47.59359,-54.27349
2021-01-19 15:14:01+00:00,198.0,4.0,203.0,4.88,13.37,47.59359,-54.27349
2021-01-19 15:24:01+00:00,238.0,3.34,235.0,3.91,13.37,47.59359,-54.27349
2021-01-19 15:34:01+00:00,230.0,4.08,223.0,4.61,13.37,47.59359,-54.27349
2021-01-19 15:44:01+00:00,229.0,4.14,235.0,5.04,13.37,47.59359,-54.27349
2021-01-19 15:54:01+00:00,225.0,3.83,220.0,4.61,13.37,47.59359,-54.27349
2021-01-19 16:04:01+00:00,213.0,4.98,214.0,5.99,13.37,47.59359,-54.27349
2021-01-19 16:14:01+00:00,220.0,5.35,214.0,6.27,13.53,47.59359,-54.27349
2021-01-19 16:24:01+00:00,261.0,7.96,261.0,8.7,13.53,47.59359,-54.27349
2021-01-19 16:34:01+00:00,272.0,7.04,274.0,7.79,13.53,47.59359,-54.27349
2021-01-19 16:44:01+00:00,270.0,7.39,268.0,8.05,13.53,47.59359,-54.27349
2021-01-19 16:54:01+00:00,260.0,6.16,260.0,6.78,13.53,47.59359,-54.27349
2021-01-19 17:04:01+00:00,253.0,5.17,250.0,6.06,13.53,47.59359,-54.27349
2021-01-19 17:14:01+00:00,271.0,7.41,274.0,9.33,13.76,47.59359,-54.27349
2021-01-19 17:24:01+00:00,275.0,7.52,282.0,8.26,13.76,47.59359,-54.27349
2021-01-19 17:34:01+00:00,283.0,7.33,288.0,8.49,13.76,47.59359,-54.27349
2021-01-19 17:44:01+00:00,286.0,10.05,285.0,10.71,13.76,47.59359,-54.27349
2021-01-19 17:54:01+00:00,303.0,10.12,306.0,12.19,13.76,47.59359,-54.27349
2021-01-19 18:04:01+00:00,296.0,8.14,300.0,9.3,13.76,47.59359,-54.27349
2021-01-19 18:14:01+00:00,267.0,6.81,267.0,8.1,13.21,47.59359,-54.27349
2021-01-19 18:24:01+00:00,272.0,7.37,271.0,8.98,13.21,47.59359,-54.27349
2021-01-19 18:34:01+00:00,280.0,8.3,282.0,9.45,13.21,47.59359,-54.27349
2021-01-19 18:44:01+00:00,287.0,7.05,281.0,7.95,13.21,47.59359,-54.27349
2021-01-19 18:54:01+00:00,301.0,9.36,293.0,13.32,13.21,47.59359,-54.27349
2021-01-19 19:04:01+00:00,299.0,8.39,297.0,9.52,13.21,47.59359,-54.27349
2021-01-19 19:14:01+00:00,286.0,9.02,278.0,11.06,13.05,47.59359,-54.27349
2021-01-19 19:24:01+00:00,275.0,9.75,279.0,10.91,13.05,47.59359,-54.27349
2021-01-19 19:34:01+00:00,277.0,9.89,278.0,11.19,13.05,47.59359,-54.27349
2021-01-19 19:44:01+00:00,278.0,10.33,279.0,10.99,13.05,47.59359,-54.27349
2021-01-19 19:54:01+00:00,275.0,10.83,276.0,11.54,13.05,47.59359,-54.27349
2021-01-19 20:04:01+00:00,265.0,9.85,260.0,12.12,13.05,47.59359,-54.27349
2021-01-19 20:14:01+00:00,264.0,9.87,257.0,11.77,12.73,47.59359,-54.27349
2021-01-19 20:24:01+00:00,268.0,9.82,269.0,11.56,12.73,47.59359,-54.27349
2021-01-19 20:34:01+00:00,265.0,11.01,266.0,12.3,12.73,47.59359,-54.27349
2021-01-19 20:44:01+00:00,265.0,9.09,267.0,9.75,12.73,47.59359,-54.27349
2021-01-19 20:54:01+00:00,270.0,9.07,280.0,10.24,12.73,47.59359,-54.27349
2021-01-19 21:04:01+00:00,262.0,8.15,264.0,9.92,12.73,47.59359,-54.27349
2021-01-19 21:14:01+00:00,263.0,7.67,262.0,9.1,12.65,47.59359,-54.27349
2021-01-19 21:24:01+00:00,268.0,7.47,269.0,8.79,12.65,47.59359,-54.27349
2021-01-19 21:34:01+00:00,265.0,8.01,275.0,9.32,12.65,47.59359,-54.27349
2021-01-19 21:44:01+00:00,270.0,7.34,273.0,8.61,12.65,47.59359,-54.27349
2021-01-19 21:54:01+00:00,280.0,7.66,281.0,9.5,12.65,47.59359,-54.27349
2021-01-19 22:04:01+00:00,296.0,8.87,306.0,10.71,12.65,47.59359,-54.27349
2021-01-19 22:14:01+00:00,292.0,8.94,284.0,11.14,12.57,47.59359,-54.27349
2021-01-19 22:24:01+00:00,304.0,10.3,303.0,12.26,12.57,47.59359,-54.27349
2021-01-19 22:34:01+00:00,303.0,10.79,306.0,13.06,12.57,47.59359,-54.27349
2021-01-19 22:44:01+00:00,304.0,12.08,306.0,13.85,12.57,47.59359,-54.27349
2021-01-19 22:54:01+00:00,304.0,11.23,308.0,12.91,12.57,47.59359,-54.27349
2021-01-19 23:04:01+00:00,300.0,10.35,299.0,12.21,12.57,47.59359,-54.27349
2021-01-19 23:14:01+00:00,302.0,10.05,299.0,12.64,12.57,47.59359,-54.27349
2021-01-19 23:24:01+00:00,294.0,11.23,286.0,13.02,12.57,47.59359,-54.27349
2021-01-19 23:34:01+00:00,292.0,10.82,298.0,14.02,12.57,47.59359,-54.27349
2021-01-19 23:44:01+00:00,300.0,7.34,293.0,9.47,12.57,47.59359,-54.27349
2021-01-19 23:54:01+00:00,311.0,6.15,302.0,8.21,12.57,47.59359,-54.27349
